Chipley, FL

3:54 PM CST on January 17, 2017 (GMT -0600)
Chipley

Weather History for KVSH - June, 2013

Change the Weather History Date:

Thursday, June 13, 2013

  Actual Average (KDHN) Record (KDHN)
Temperature  
Mean Temperature 86 °F -  
Max Temperature 93 °F 89 °F 100 °F (1952)
Min Temperature 78 °F 71 °F 63 °F (1955)
Cooling Degree Days 20    
Growing Degree Days 36 (Base 50)    
Moisture  
Dew Point 72 °F    
Average Humidity 64    
Maximum Humidity 83    
Minimum Humidity 46    
Precipitation  
Precipitation 0.01 in - - ()
Sea Level Pressure  
Sea Level Pressure 30.00 in    
Wind  
Wind Speed 3 mph (West)    
Max Wind Speed 7 mph    
Max Gust Speed -    
Visibility 10 miles    
Events      
Averages and records for this station are not official NWS values.
T = Trace of Precipitation, MM = Missing Value Source: NWS Daily Summary

Daily Weather History Graph

Daily Weather History Graph

Search for Another Location

Airport or City:

Trip Planner

Search our weather history database for the weather conditions in past years. The results will help you decide how hot, cold, wet, or windy it might be!

Date:

Astronomy

Jun. 13, 2013 Rise Set
Actual Time 5:38 AM CDT 7:46 PM CDT
Civil Twilight 5:11 AM CDT 8:14 PM CDT
Nautical Twilight 4:37 AM CDT 8:47 PM CDT
Astronomical Twilight 4:01 AM CDT 9:24 PM CDT
Moon 10:00 AM CDT (6/13) 11:09 PM CDT (6/13)
Length of Visible Light 15h 02m
Length of Day
14h 07m
Waxing Crescent, 22% of the Moon is Illuminated
Jun 13
Waxing Crescent
Jun 16
First Quarter
Jun 23
Full
Jun 29
Last Quarter
Jul 8
New

Hourly Weather History & Observations

Time (CDT) Temp. Heat Index Dew Point Humidity Pressure Visibility Wind Dir Wind Speed Gust Speed Precip Events Conditions
12:15 AM 82.4 °F 87.2 °F 71.6 °F 70% 30.04 in 10.0 mi SW 3.5 mph - N/A   Clear
12:35 AM 82.4 °F 88.2 °F 73.4 °F 74% 30.04 in 10.0 mi SSW 5.8 mph - N/A   Clear
12:55 AM 82.4 °F 87.2 °F 71.6 °F 70% 30.04 in 10.0 mi SSW 3.5 mph - N/A   Clear
1:15 AM 80.6 °F 85.4 °F 73.4 °F 79% 30.03 in 10.0 mi SSW 3.5 mph - N/A   Clear
1:35 AM 80.6 °F 85.4 °F 73.4 °F 79% 30.03 in 10.0 mi SW 3.5 mph - N/A   Clear
1:55 AM 80.6 °F 84.6 °F 71.6 °F 74% 30.03 in 10.0 mi WSW 3.5 mph - N/A   Clear
2:15 AM 80.6 °F 84.6 °F 71.6 °F 74% 30.03 in 10.0 mi Calm Calm - N/A   Clear
2:35 AM 80.6 °F 85.4 °F 73.4 °F 79% 30.03 in 10.0 mi Calm Calm - N/A   Clear
2:55 AM 80.6 °F 85.4 °F 73.4 °F 79% 30.03 in 10.0 mi Calm Calm - N/A   Clear
3:15 AM 80.6 °F 85.4 °F 73.4 °F 79% 30.03 in 10.0 mi Calm Calm - N/A   Clear
3:35 AM 80.6 °F 84.6 °F 71.6 °F 74% 30.03 in 10.0 mi Calm Calm - N/A   Clear
3:55 AM 80.6 °F 84.6 °F 71.6 °F 74% 30.03 in 10.0 mi SW 3.5 mph - N/A   Clear
4:15 AM 80.6 °F 84.6 °F 71.6 °F 74% 30.03 in 10.0 mi WSW 3.5 mph - N/A   Clear
4:35 AM 78.8 °F - 71.6 °F 78% 30.03 in 10.0 mi Calm Calm - N/A   Clear
4:55 AM 78.8 °F - 71.6 °F 78% 30.03 in 10.0 mi Calm Calm - N/A   Clear
5:15 AM 78.8 °F - 73.4 °F 83% 30.04 in 10.0 mi Calm Calm - N/A   Clear
5:35 AM 78.8 °F - 73.4 °F 83% 30.04 in 10.0 mi Calm Calm - N/A   Clear
5:55 AM 78.8 °F - 73.4 °F 83% 30.05 in 10.0 mi Calm Calm - N/A   Clear
6:15 AM 78.8 °F - 73.4 °F 83% 30.05 in 10.0 mi Calm Calm - N/A   Clear
6:35 AM 78.8 °F - 73.4 °F 83% 30.05 in 10.0 mi SW 3.5 mph - N/A   Clear
6:55 AM 80.6 °F 85.4 °F 73.4 °F 79% 30.06 in 10.0 mi SW 3.5 mph - N/A   Clear
7:15 AM 80.6 °F 85.4 °F 73.4 °F 79% 30.06 in 10.0 mi West 3.5 mph - N/A   Clear
7:35 AM 80.6 °F 85.4 °F 73.4 °F 79% 30.07 in 10.0 mi WSW 5.8 mph - N/A   Clear
7:55 AM 82.4 °F 88.2 °F 73.4 °F 74% 30.07 in 10.0 mi West 6.9 mph - N/A   Clear
8:15 AM 84.2 °F 90.9 °F 73.4 °F 70% 30.08 in 10.0 mi Calm Calm - N/A   Clear
8:35 AM 84.2 °F 90.9 °F 73.4 °F 70% 30.08 in 10.0 mi SW 5.8 mph - N/A   Partly Cloudy
8:55 AM 84.2 °F 89.6 °F 71.6 °F 66% 30.08 in 10.0 mi WNW 4.6 mph - N/A   Partly Cloudy
9:15 AM 84.2 °F 89.6 °F 71.6 °F 66% 30.08 in 10.0 mi WSW 5.8 mph - N/A   Scattered Clouds
9:35 AM 86.0 °F 91.8 °F 71.6 °F 62% 30.08 in 10.0 mi WNW 6.9 mph - N/A   Scattered Clouds
9:55 AM 86.0 °F 91.8 °F 71.6 °F 62% 30.07 in 10.0 mi West 6.9 mph - N/A   Mostly Cloudy
10:15 AM 87.8 °F 93.8 °F 71.6 °F 58% 30.07 in 10.0 mi WNW 4.6 mph - N/A   Mostly Cloudy
10:35 AM 87.8 °F 93.8 °F 71.6 °F 58% 30.07 in 10.0 mi Calm Calm - N/A   Mostly Cloudy
10:55 AM 86.0 °F 91.8 °F 71.6 °F 62% 30.07 in 10.0 mi NW 4.6 mph - N/A   Overcast
11:15 AM 87.8 °F 93.8 °F 71.6 °F 58% 30.06 in 10.0 mi Calm Calm - N/A   Mostly Cloudy
11:35 AM 87.8 °F 93.8 °F 71.6 °F 58% 30.06 in 10.0 mi Calm Calm - N/A   Mostly Cloudy
11:55 AM 87.8 °F 93.8 °F 71.6 °F 58% 30.06 in 10.0 mi NNW 3.5 mph - N/A   Mostly Cloudy
12:15 PM 87.8 °F 93.8 °F 71.6 °F 58% 30.05 in 10.0 mi NW 5.8 mph - N/A   Mostly Cloudy
12:35 PM 87.8 °F 93.8 °F 71.6 °F 58% 30.04 in 10.0 mi Calm Calm - N/A   Mostly Cloudy
12:55 PM - - - N/A% 30.03 in 10.0 mi NW 4.6 mph - N/A   Mostly Cloudy
1:15 PM - - - N/A% 30.02 in 10.0 mi North 5.8 mph - N/A   Overcast
1:35 PM 87.8 °F 93.8 °F 71.6 °F 58% 30.02 in 10.0 mi North 3.5 mph - 0.01 in   Mostly Cloudy
1:55 PM 91.4 °F 98.4 °F 71.6 °F 52% 30.01 in 10.0 mi West 5.8 mph - 0.01 in   Mostly Cloudy
2:15 PM 91.4 °F 98.4 °F 71.6 °F 52% 30.01 in 8.0 mi WSW 6.9 mph - N/A   Scattered Clouds
2:35 PM 91.4 °F 96.8 °F 69.8 °F 49% 30.00 in 10.0 mi WSW 6.9 mph - N/A   Scattered Clouds
2:55 PM 91.4 °F 96.8 °F 69.8 °F 49% 29.99 in 10.0 mi WSW 5.8 mph - N/A   Mostly Cloudy
3:15 PM 93.2 °F 98.8 °F 69.8 °F 46% 29.98 in 10.0 mi SSW 3.5 mph - N/A   Overcast
3:35 PM 93.2 °F 98.8 °F 69.8 °F 46% 29.97 in 10.0 mi WNW 5.8 mph - N/A   Overcast
3:55 PM 91.4 °F 96.8 °F 69.8 °F 49% 29.96 in 10.0 mi West 4.6 mph - N/A   Mostly Cloudy
4:15 PM 91.4 °F 96.8 °F 69.8 °F 49% 29.96 in 10.0 mi WSW 3.5 mph - N/A   Mostly Cloudy
4:35 PM 93.2 °F 100.5 °F 71.6 °F 49% 29.95 in 10.0 mi NNW 4.6 mph - N/A   Mostly Cloudy
4:55 PM 91.4 °F 96.8 °F 69.8 °F 49% 29.94 in 10.0 mi North 5.8 mph - N/A   Scattered Clouds
5:15 PM 93.2 °F 100.5 °F 71.6 °F 49% 29.93 in 10.0 mi North 4.6 mph - N/A   Partly Cloudy
5:35 PM 93.2 °F 98.8 °F 69.8 °F 46% 29.93 in 10.0 mi North 6.9 mph - N/A   Clear
5:55 PM 91.4 °F 96.8 °F 69.8 °F 49% 29.92 in 10.0 mi NNW 5.8 mph - N/A   Clear
6:15 PM 91.4 °F 96.8 °F 69.8 °F 49% 29.92 in 10.0 mi WNW 5.8 mph - N/A   Clear
6:35 PM 91.4 °F 96.8 °F 69.8 °F 49% 29.92 in 10.0 mi NNW 5.8 mph - N/A   Clear
6:55 PM 91.4 °F 96.8 °F 69.8 °F 49% 29.92 in 10.0 mi NW 4.6 mph - N/A   Clear
7:15 PM 91.4 °F 96.8 °F 69.8 °F 49% 29.92 in 10.0 mi Calm Calm - N/A   Clear
7:35 PM 89.6 °F 94.7 °F 69.8 °F 52% 29.91 in 10.0 mi NNW 5.8 mph - N/A   Clear
7:55 PM 89.6 °F 94.7 °F 69.8 °F 52% 29.92 in 10.0 mi NW 5.8 mph - N/A   Clear
8:15 PM 89.6 °F 94.7 °F 69.8 °F 52% 29.92 in 10.0 mi North 4.6 mph - N/A   Clear
8:35 PM 89.6 °F 94.7 °F 69.8 °F 52% 29.92 in 10.0 mi Calm Calm - N/A   Clear
8:55 PM 89.6 °F 94.7 °F 69.8 °F 52% 29.92 in 10.0 mi WNW 3.5 mph - N/A   Clear
9:15 PM 89.6 °F 94.7 °F 69.8 °F 52% 29.92 in 10.0 mi NW 3.5 mph - N/A   Clear
9:35 PM 89.6 °F 94.7 °F 69.8 °F 52% 29.92 in 10.0 mi Calm Calm - N/A   Clear
9:55 PM 89.6 °F 94.7 °F 69.8 °F 52% 29.93 in 10.0 mi Calm Calm - N/A   Clear
10:15 PM 87.8 °F 93.8 °F 71.6 °F 58% 29.93 in 10.0 mi SSW 5.8 mph - N/A   Clear
10:35 PM 86.0 °F 93.4 °F 73.4 °F 66% 29.94 in 10.0 mi SW 5.8 mph - N/A   Clear
10:55 PM 84.2 °F 92.3 °F 75.2 °F 74% 29.94 in 10.0 mi SW 3.5 mph - N/A   Clear
11:15 PM 84.2 °F 92.3 °F 75.2 °F 74% 29.94 in 10.0 mi WSW 4.6 mph - N/A   Clear
11:35 PM 84.2 °F 92.3 °F 75.2 °F 74% 29.94 in 10.0 mi SW 3.5 mph - N/A   Clear
11:55 PM 82.4 °F 89.5 °F 75.2 °F 79% 29.94 in 10.0 mi WSW 4.6 mph - N/A   Clear